Satellite: NOAA-14 Catalog number: 23455 Epoch time: 10181.80090241 Element set: 0108 Inclination: 098.8787 deg RA of node: 262.4503 deg Eccentricity: 0.0009010 Arg of perigee: 192.2069 deg Mean anomaly: 167.8874 deg Mean motion: 14.13788742 rev/day Decay rate: -6.0e-08 rev/day^2 Epoch rev: 79942 Checksum: 312
Satellite: NOAA-15 Catalog number: 25338 Epoch time: 10181.56661767 Element set: 0429 Inclination: 098.6188 deg RA of node: 168.2506 deg Eccentricity: 0.0011353 Arg of perigee: 040.6947 deg Mean anomaly: 319.5084 deg Mean motion: 14.24837581 rev/day Decay rate: 1.77e-06 rev/day^2 Epoch rev: 63065 Checksum: 326
Satellite: RESURS Catalog number: 25394 Epoch time: 10181.62602865 Element set: 0543 Inclination: 098.3043 deg RA of node: 198.9741 deg Eccentricity: 0.0001382 Arg of perigee: 139.9351 deg Mean anomaly: 220.1926 deg Mean motion: 14.24204808 rev/day Decay rate: 3.4e-07 rev/day^2 Epoch rev: 62226 Checksum: 282
Satellite: FENGYUN1 Catalog number: 25730 Epoch time: 10181.45020423 Element set: 0078 Inclination: 098.7856 deg RA of node: 146.0590 deg Eccentricity: 0.0020706 Arg of perigee: 231.5343 deg Mean anomaly: 128.4021 deg Mean motion: 14.08187787 rev/day Decay rate: -9.0e-08 rev/day^2 Epoch rev: 57355 Checksum: 283
Satellite: OKEAN-0 Catalog number: 25860 Epoch time: 10182.47147553 Element set: 34 Inclination: 097.8324 deg RA of node: 154.6837 deg Eccentricity: 0.0001786 Arg of perigee: 061.6194 deg Mean anomaly: 298.5188 deg Mean motion: 14.73646567 rev/day Decay rate: 2.1e-07 rev/day^2 Epoch rev: 58900 Checksum: 318
Satellite: NOAA-16 Catalog number: 26536 Epoch time: 10181.54280210 Element set: 0906 Inclination: 099.1693 deg RA of node: 199.3259 deg Eccentricity: 0.0009728 Arg of perigee: 302.6359 deg Mean anomaly: 057.3913 deg Mean motion: 14.12565154 rev/day Decay rate: 9.3e-07 rev/day^2 Epoch rev: 50371 Checksum: 307
Satellite: NOAA-17 Catalog number: 27453 Epoch time: 10181.55570065 Element set: 0905 Inclination: 098.4300 deg RA of node: 231.4617 deg Eccentricity: 0.0012807 Arg of perigee: 098.0956 deg Mean anomaly: 262.1699 deg Mean motion: 14.24169155 rev/day Decay rate: -2.4e-07 rev/day^2 Epoch rev: 41660 Checksum: 298
Satellite: NOAA-18 Catalog number: 28654 Epoch time: 10181.55722412 Element set: 0389 Inclination: 098.9502 deg RA of node: 127.7832 deg Eccentricity: 0.0014753 Arg of perigee: 019.7202 deg Mean anomaly: 340.4548 deg Mean motion: 14.11367551 rev/day Decay rate: 2.17e-06 rev/day^2 Epoch rev: 26332 Checksum: 295
Satellite: NOAA-19 Catalog number: 33591 Epoch time: 10181.54811956 Element set: 0586 Inclination: 098.7885 deg RA of node: 123.3850 deg Eccentricity: 0.0013091 Arg of perigee: 250.8245 deg Mean anomaly: 109.1506 deg Mean motion: 14.11063142 rev/day Decay rate: 1.32e-06 rev/day^2 Epoch rev: 07179 Checksum: 292
/EX SB KEPS @ AMSAT $ORB10182.M Orbital Elements 10182.MISC
HR AMSAT ORBITAL ELEMENTS FOR MANNED AND MISCELLANEOUS SATELLITES FROM WA5QGD FORT WORTH,TX July 1, 2010 Send Subscribe/unsubscribe to KEPS at http://www.amsat.org/mailman/listinfo/keps BID: ORB10182.M TO ALL RADIO AMATEURS BT
Satellite: HUBBLE Catalog number: 20580 Epoch time: 10182.34335461 Element set: 594 Inclination: 028.4682 deg RA of node: 147.4498 deg Eccentricity: 0.0002892 Arg of perigee: 358.8779 deg Mean anomaly: 001.2267 deg Mean motion: 15.00992347 rev/day Decay rate: 2.34e-06 rev/day^2 Epoch rev: 90688 Checksum: 316
Satellite: ISS Catalog number: 25544 Epoch time: 10183.01103237 Element set: 427 Inclination: 051.6465 deg RA of node: 154.7287 deg Eccentricity: 0.0010027 Arg of perigee: 032.7085 deg Mean anomaly: 083.3744 deg Mean motion: 15.72156097 rev/day Decay rate: 1.1736e-04 rev/day^2 Epoch rev: 66580 Checksum: 281
Satellite: CO-58 Catalog number: 28895 Epoch time: 10181.20938373 Element set: 0621 Inclination: 098.0130 deg RA of node: 065.2551 deg Eccentricity: 0.0016843 Arg of perigee: 242.7994 deg Mean anomaly: 117.1471 deg Mean motion: 14.59905393 rev/day Decay rate: 1.33e-06 rev/day^2 Epoch rev: 24888 Checksum: 321
Satellite: FALCON Catalog number: 30776 Epoch time: 10181.82611546 Element set: 860 Inclination: 035.4348 deg RA of node: 321.4855 deg Eccentricity: 0.0001945 Arg of perigee: 321.3484 deg Mean anomaly: 038.7092 deg Mean motion: 15.03701208 rev/day Decay rate: 5.32e-06 rev/day^2 Epoch rev: 18211 Checksum: 268
Satellite: MAST Catalog number: 31126 Epoch time: 10181.64493234 Element set: 902 Inclination: 097.9360 deg RA of node: 222.9615 deg Eccentricity: 0.0094258 Arg of perigee: 183.5363 deg Mean anomaly: 176.5137 deg Mean motion: 14.53597999 rev/day Decay rate: 5.3e-07 rev/day^2 Epoch rev: 17001 Checksum: 306
Satellite: CAPE1 Catalog number: 31130 Epoch time: 10181.50287584 Element set: 922 Inclination: 097.9355 deg RA of node: 220.2105 deg Eccentricity: 0.0102189 Arg of perigee: 191.8484 deg Mean anomaly: 168.0368 deg Mean motion: 14.52193616 rev/day Decay rate: 2.39e-06 rev/day^2 Epoch rev: 16959 Checksum: 301
Satellite: COMPASS Catalog number: 32787 Epoch time: 10181.20050385 Element set: 0713 Inclination: 097.8934 deg RA of node: 245.7790 deg Eccentricity: 0.0014709 Arg of perigee: 241.7957 deg Mean anomaly: 118.1775 deg Mean motion: 14.81896430 rev/day Decay rate: 1.83e-06 rev/day^2 Epoch rev: 11742 Checksum: 312
Satellite: AAUSAT2 Catalog number: 32788 Epoch time: 10181.13478436 Element set: 0705 Inclination: 097.8939 deg RA of node: 245.8463 deg Eccentricity: 0.0014210 Arg of perigee: 243.1422 deg Mean anomaly: 116.8401 deg Mean motion: 14.82040580 rev/day Decay rate: 2.54e-06 rev/day^2 Epoch rev: 11742 Checksum: 280
Satellite: DO-64 Catalog number: 32789 Epoch time: 10182.69512034 Element set: 722 Inclination: 097.8998 deg RA of node: 247.8741 deg Eccentricity: 0.0014558 Arg of perigee: 235.5215 deg Mean anomaly: 124.4623 deg Mean motion: 14.82195463 rev/day Decay rate: 9.83e-06 rev/day^2 Epoch rev: 11765 Checksum: 336
Satellite: CO-66 Catalog number: 32791 Epoch time: 10182.71005432 Element set: 704 Inclination: 097.8953 deg RA of node: 247.2808 deg Eccentricity: 0.0014987 Arg of perigee: 235.5413 deg Mean anomaly: 124.4883 deg Mean motion: 14.81680787 rev/day Decay rate: 3.43e-06 rev/day^2 Epoch rev: 66812 Checksum: 326
Satellite: RS-30 Catalog number: 32953 Epoch time: 10182.53693838 Element set: 831 Inclination: 082.5002 deg RA of node: 020.7547 deg Eccentricity: 0.0019931 Arg of perigee: 071.6172 deg Mean anomaly: 288.7085 deg Mean motion: 12.43005971 rev/day Decay rate: 1.0e-07 rev/day^2 Epoch rev: 9552 Checksum: 286
Satellite: TACSAT-3 Catalog number: 35001 Epoch time: 10181.97172979 Element set: 0324 Inclination: 040.4528 deg RA of node: 131.2953 deg Eccentricity: 0.0019626 Arg of perigee: 106.9822 deg Mean anomaly: 253.3146 deg Mean motion: 15.41905388 rev/day Decay rate: 4.554e-05 rev/day^2 Epoch rev: 06276 Checksum: 298
Satellite: PHARMSAT Catalog number: 35002 Epoch time: 10181.92084552 Element set: 0307 Inclination: 040.4669 deg RA of node: 129.5546 deg Eccentricity: 0.0022648 Arg of perigee: 111.8414 deg Mean anomaly: 248.4815 deg Mean motion: 15.42420571 rev/day Decay rate: 3.736e-05 rev/day^2 Epoch rev: 06277 Checksum: 281
Satellite: HAWKSAT1 Catalog number: 35003 Epoch time: 10181.93110625 Element set: 0331 Inclination: 040.4546 deg RA of node: 123.8890 deg Eccentricity: 0.0020149 Arg of perigee: 127.0313 deg Mean anomaly: 233.2358 deg Mean motion: 15.45621313 rev/day Decay rate: 8.953e-05 rev/day^2 Epoch rev: 06284 Checksum: 254
Satellite: CP6 Catalog number: 35004 Epoch time: 10181.92051447 Element set: 0325 Inclination: 040.4595 deg RA of node: 122.9279 deg Eccentricity: 0.0019258 Arg of perigee: 132.0572 deg Mean anomaly: 228.1896 deg Mean motion: 15.46485833 rev/day Decay rate: 1.0032e-04 rev/day^2 Epoch rev: 06284 Checksum: 291
Satellite: AEROCUB3 Catalog number: 35005 Epoch time: 10182.82763045 Element set: 363 Inclination: 040.4690 deg RA of node: 114.2611 deg Eccentricity: 0.0017013 Arg of perigee: 159.2173 deg Mean anomaly: 200.9347 deg Mean motion: 15.52184970 rev/day Decay rate: 3.2718e-04 rev/day^2 Epoch rev: 6302 Checksum: 260
Satellite: DRAGNSAT Catalog number: 35690 Epoch time: 10076.22711312 Element set: 316 Inclination: 051.6170 deg RA of node: 315.4586 deg Eccentricity: 0.0004999 Arg of perigee: 310.9891 deg Mean anomaly: 057.3269 deg Mean motion: 16.42150010 rev/day Decay rate: 5.715194e-02 rev/day^2 Epoch rev: 3656 Checksum: 289
Satellite: POLLUX Catalog number: 35693 Epoch time: 10087.99866888 Element set: 352 Inclination: 051.6099 deg RA of node: 254.5746 deg Eccentricity: 0.0006270 Arg of perigee: 294.4866 deg Mean anomaly: 097.5899 deg Mean motion: 16.52338462 rev/day Decay rate: 2.3496735e-01 rev/day^2 Epoch rev: 3839 Checksum: 384
Satellite: CASTOR Catalog number: 35694 Epoch time: 10182.78538706 Element set: 520 Inclination: 051.6322 deg RA of node: 121.7936 deg Eccentricity: 0.0001362 Arg of perigee: 044.5801 deg Mean anomaly: 315.5321 deg Mean motion: 16.05351770 rev/day Decay rate: 1.20917e-03 rev/day^2 Epoch rev: 5340 Checksum: 265
Satellite: METEOR-M Catalog number: 35865 Epoch time: 10182.56045825 Element set: 431 Inclination: 098.7577 deg RA of node: 236.2566 deg Eccentricity: 0.0002403 Arg of perigee: 345.6614 deg Mean anomaly: 014.4493 deg Mean motion: 14.21830849 rev/day Decay rate: 1.76e-06 rev/day^2 Epoch rev: 4076 Checksum: 299
Satellite: RS-38 Catalog number: 35869 Epoch time: 10182.60076597 Element set: 440 Inclination: 098.7565 deg RA of node: 236.3305 deg Eccentricity: 0.0004295 Arg of perigee: 336.0146 deg Mean anomaly: 024.0831 deg Mean motion: 14.21984272 rev/day Decay rate: 1.77e-06 rev/day^2 Epoch rev: 4077 Checksum: 308
/EX